Regional Weather Roundup
Issued by NWS

Home | Current Version | Previous Version | Graphics & Text | Print | Product List | Glossary On
Versions: 1 2 3 4 5 6 7 8 9 10 11 12 13 14 15 16 17 18 19 20 21 22 23 24 25 26 27 28 29 30 31 32 33 34 35 36 37 38 39 40 41 42 43 44 45 46 47 48 49 50
000
ASUS44 KMEG 170600
RWRTN
TENNESSEE HOURLY STATE WEATHER ROUNDUP
NATIONAL WEATHER SERVICE MEMPHIS TN
100 AM CDT THU APR 17 2014

TNZ002-004-019-021-049-052-054-088>092-170700-
WEST TENNESSEE

CITY           SKY/WX    TMP DP  RH WIND       PRES   REMARKS
MEMPHIS INTL   MOCLDY    47  32  56 S6        30.19R
NWS MEMPHIS      N/A     42 N/A N/A MISG        N/A
JACKSON        FAIR      38  33  82 S5        30.19S WCI  34
DYERSBURG      FAIR      45  28  53 SE3       30.20R
UNION CITY     CLEAR     46  30  53 SE6       30.17R
$$

TNZ008-025-027-028-033-062-065-066-170700-
NORTH MIDDLE TENNESSEE

CITY           SKY/WX    TMP DP  RH WIND       PRES   REMARKS
NASHVILLE      FAIR      43  36  76 CALM      30.25R
CLARKSVILLE    FAIR      42  31  64 SE7       30.21S
COOKEVILLE     CLEAR     46  30  53 S5        30.28R
CROSSVILLE     FAIR      46  26  45 S5        30.29R
$$

TNZ061-075-076-078-094-096-097-170700-
SOUTH MIDDLE TENNESSEE

CITY           SKY/WX    TMP DP  RH WIND       PRES   REMARKS
TULLAHOMA      CLEAR     50  27  40 S8        30.28R
WINCHESTER     CLEAR     48  28  46 S7        30.28R
$$

TNZ017-018-042-046-047-170700-
NORTHEAST TENNESSEE

CITY           SKY/WX    TMP DP  RH WIND       PRES   REMARKS
TRI CITIES     FAIR      46  19  34 SE6       30.34R
ELIZABETHTON   CLEAR     43  19  39 CALM      30.35S
$$

TNZ012-013-036-069-073-074-170700-
CENTRAL EAST TENNESSEE

CITY           SKY/WX    TMP DP  RH WIND       PRES   REMARKS
KNOXVILLE      FAIR      42  33  70 CALM      30.29R
OAK RIDGE      FAIR      41  33  73 CALM      30.32R
$$

TNZ083-085-099-170700-
SOUTHEAST TENNESSEE

CITY           SKY/WX    TMP DP  RH WIND       PRES   REMARKS
CHATTANOOGA    FAIR      52  27  38 S9        30.31R
$$

SKY/WX REPORTED AS FAIR MEANS FEW OR NO CLOUDS BELOW
12 THOUSAND FEET.




USA.gov is the U.S. government's official web portal to all federal, state and local government web resources and services.